Time,TemperatureF,DewpointF,PressureIn,WindDirection,WindDirectionDegrees,WindSpeedMPH,WindSpeedGustMPH,Humidity,HourlyPrecipIn,Conditions,Clouds,dailyrainin,SolarRadiationWatts/m^2,SoftwareType,DateUTC
2013-05-23 00:21:00,30.0,19.0,-100.00,ENE,77,2.0,3.0,62,-99.99,,,-99.99,0.000000,,2013-05-23 07:21:00,
2013-05-23 00:30:00,31.0,16.0,-100.00,SSE,156,1.0,2.0,53,-99.99,,,-99.99,0.000000,,2013-05-23 07:30:00,
2013-05-23 01:21:00,31.0,16.0,-100.00,SSE,156,1.0,2.0,53,-99.99,,,-99.99,0.000000,,2013-05-23 08:21:00,
2013-05-23 01:30:00,31.0,14.0,-100.00,SE,135,4.0,7.0,50,-99.99,,,-99.99,0.000000,,2013-05-23 08:30:00,
2013-05-23 02:21:00,31.0,14.0,-100.00,SE,135,4.0,7.0,50,-99.99,,,-99.99,0.000000,,2013-05-23 09:21:00,
2013-05-23 02:30:00,30.0,15.0,-100.00,ESE,113,7.0,12.0,53,-99.99,,,-99.99,0.000000,,2013-05-23 09:30:00,
2013-05-23 03:22:00,30.0,15.0,-100.00,ESE,113,7.0,12.0,53,-99.99,,,-99.99,0.000000,,2013-05-23 10:22:00,
2013-05-23 03:30:00,28.0,15.0,-100.00,SE,124,6.0,8.0,56,-99.99,,,-99.99,0.000000,,2013-05-23 10:30:00,
2013-05-23 04:21:00,28.0,15.0,-100.00,SE,124,6.0,8.0,56,-99.99,,,-99.99,0.000000,,2013-05-23 11:21:00,
2013-05-23 04:30:00,27.0,15.0,-100.00,ESE,117,6.0,8.0,58,-99.99,,,-99.99,0.000000,,2013-05-23 11:30:00,
2013-05-23 05:21:00,27.0,15.0,-100.00,ESE,117,6.0,8.0,58,-99.99,,,-99.99,0.000000,,2013-05-23 12:21:00,
2013-05-23 05:30:00,27.0,15.0,-100.00,South,170,2.0,4.0,59,-99.99,,,-99.99,0.000000,,2013-05-23 12:30:00,
2013-05-23 06:22:00,27.0,15.0,-100.00,South,170,2.0,4.0,59,-99.99,,,-99.99,0.000000,,2013-05-23 13:22:00,
2013-05-23 06:30:00,27.0,15.0,-100.00,South,180,1.0,3.0,60,-99.99,,,-99.99,30.000000,,2013-05-23 13:30:00,
2013-05-23 07:21:00,27.0,15.0,-100.00,South,180,1.0,3.0,60,-99.99,,,-99.99,30.000000,,2013-05-23 14:21:00,
2013-05-23 07:30:00,29.0,16.0,-100.00,WSW,258,1.0,4.0,57,-99.99,,,-99.99,60.000000,,2013-05-23 14:30:00,
2013-05-23 08:30:00,32.0,14.0,-100.00,SSE,156,3.0,7.0,48,-99.99,,,-99.99,380.000000,,2013-05-23 15:30:00,
2013-05-23 09:23:00,32.0,14.0,-100.00,SSE,156,3.0,7.0,48,-99.99,,,-99.99,380.000000,,2013-05-23 16:23:00,
2013-05-23 09:30:00,34.0,14.0,-100.00,SSE,156,3.0,10.0,45,-99.99,,,-99.99,531.000000,,2013-05-23 16:30:00,
2013-05-23 10:22:00,34.0,14.0,-100.00,SSE,156,3.0,10.0,45,-99.99,,,-99.99,531.000000,,2013-05-23 17:22:00,
2013-05-23 10:30:00,36.0,9.0,-100.00,SSE,161,5.0,12.0,31,-99.99,,,-99.99,657.000000,,2013-05-23 17:30:00,
2013-05-23 11:30:00,39.0,11.0,-100.00,South,175,4.0,10.0,31,-99.99,,,-99.99,744.000000,,2013-05-23 18:30:00,
2013-05-23 12:30:00,39.0,13.0,-100.00,SSE,158,5.0,11.0,34,-99.99,,,-99.99,801.000000,,2013-05-23 19:30:00,
2013-05-23 13:21:00,39.0,13.0,-100.00,SSE,158,5.0,11.0,34,-99.99,,,-99.99,801.000000,,2013-05-23 20:21:00,
2013-05-23 13:30:00,39.0,20.0,-100.00,SSE,158,5.0,14.0,45,-99.99,,,-99.99,547.000000,,2013-05-23 20:30:00,
2013-05-23 14:21:00,39.0,20.0,-100.00,SSE,158,5.0,14.0,45,-99.99,,,-99.99,547.000000,,2013-05-23 21:21:00,
2013-05-23 14:30:00,41.0,21.0,-100.00,SE,132,6.0,13.0,43,-99.99,,,-99.99,725.000000,,2013-05-23 21:30:00,
2013-05-23 15:22:00,41.0,21.0,-100.00,SE,132,6.0,13.0,43,-99.99,,,-99.99,725.000000,,2013-05-23 22:22:00,
2013-05-23 15:30:00,41.0,22.0,-100.00,South,189,2.0,10.0,46,-99.99,,,-99.99,175.000000,,2013-05-23 22:30:00,
2013-05-23 16:21:00,41.0,22.0,-100.00,South,189,2.0,10.0,46,-99.99,,,-99.99,175.000000,,2013-05-23 23:21:00,
2013-05-23 16:30:00,43.0,24.0,-100.00,SW,232,3.0,10.0,47,-99.99,,,-99.99,90.000000,,2013-05-23 23:30:00,
2013-05-23 17:30:00,43.0,24.0,-100.00,SW,214,3.0,9.0,47,-99.99,,,-99.99,51.000000,,2013-05-24 00:30:00,
2013-05-23 18:22:00,43.0,24.0,-100.00,SW,214,3.0,9.0,47,-99.99,,,-99.99,51.000000,,2013-05-24 01:22:00,
2013-05-23 18:30:00,43.0,25.0,-100.00,NW,306,2.0,5.0,48,-99.99,,,-99.99,191.000000,,2013-05-24 01:30:00,
2013-05-23 19:30:00,40.0,25.0,-100.00,SSW,195,2.0,5.0,56,-99.99,,,-99.99,15.000000,,2013-05-24 02:30:00,
2013-05-23 20:21:00,40.0,25.0,-100.00,SSW,195,2.0,5.0,56,-99.99,,,-99.99,15.000000,,2013-05-24 03:21:00,
2013-05-23 20:30:00,35.0,26.0,-100.00,NW,319,1.0,2.0,69,-99.99,,,-99.99,1.000000,,2013-05-24 03:30:00,
2013-05-23 21:22:00,35.0,26.0,-100.00,NW,319,1.0,2.0,69,-99.99,,,-99.99,1.000000,,2013-05-24 04:22:00,
2013-05-23 21:30:00,33.0,26.0,-100.00,NNW,348,1.0,3.0,75,-99.99,,,-99.99,0.000000,,2013-05-24 04:30:00,
2013-05-23 22:22:00,33.0,26.0,-100.00,NNW,348,1.0,3.0,75,-99.99,,,-99.99,0.000000,,2013-05-24 05:22:00,
2013-05-23 22:30:00,34.0,26.0,-100.00,ENE,66,7.0,9.0,71,-99.99,,,-99.99,0.000000,,2013-05-24 05:30:00,
2013-05-23 23:21:00,34.0,26.0,-100.00,ENE,66,7.0,9.0,71,-99.99,,,-99.99,0.000000,,2013-05-24 06:21:00,